INTELSAT 10-02

Last updated on Wed Sep 17 2025 00:02:46 GMT+0000 (Coordinated Universal Time)

1 28358U 04022A 25259.58355868 -.00000030 00000+0 00000+0 0 9997 2 28358 0.0279 259.0744 0000878 319.3045 346.5002 1.00272923 77814
UTC large
Height (km)
Speed (km/s)
/
Latitude / Longitude
Inclination (degrees)
Orbital Period (minutes)
Azimuth
Elevation
Range (km)
Doppler Factor

Next 0 passes for location: London (51.5072 / 0.1276)

Sorry there are no passes over London.